EN

Hourly Weather Lebedevka

Today, 2 October, Friday

Time Temperature Precipitation Wind Pressure Humidity
00:00 +13°C° 0 mm 3 mps 766 mmHg 60%
01:00 +12°C° 0 mm 3 mps 766 mmHg 61%
02:00 +12°C° 0 mm 3 mps 766 mmHg 63%
03:00 +12°C° 0 mm 3 mps 766 mmHg 65%
04:00 +11°C° 0 mm 3 mps 766 mmHg 65%
05:00 +11°C° 0 mm 3 mps 766 mmHg 65%
06:00 +10°C° 0 mm 3 mps 766 mmHg 66%
07:00 +12°C° 0 mm 3 mps 766 mmHg 58%
08:00 +14°C° 0 mm 4 mps 766 mmHg 50%
09:00 +17°C° 0 mm 4 mps 767 mmHg 43%
10:00 +19°C° 0 mm 4 mps 766 mmHg 39%
11:00 +20°C° 0 mm 4 mps 766 mmHg 34%
12:00 +21°C° 0 mm 4 mps 766 mmHg 30%
13:00 +22°C° 0 mm 4 mps 766 mmHg 29%
14:00 +22°C° 0 mm 4 mps 766 mmHg 29%
15:00 +22°C° 0 mm 4 mps 766 mmHg 28%
16:00 +20°C° 0 mm 4 mps 766 mmHg 32%
17:00 +18°C° 0 mm 3 mps 766 mmHg 35%
18:00 +17°C° 0 mm 3 mps 765 mmHg 38%
19:00 +16°C° 0 mm 3 mps 766 mmHg 40%
20:00 +14°C° 0 mm 3 mps 766 mmHg 41%
21:00 +14°C° 0 mm 3 mps 766 mmHg 43%
22:00 +13°C° 0 mm 3 mps 766 mmHg 44%
23:00 +14°C° 0 mm 2 mps 766 mmHg 46%

Tomorrow, 3 October, Saturday

Time Temperature Precipitation Wind Pressure Humidity
00:00 +13°C° 0 mm 2 mps 766 mmHg 47%
01:00 +13°C° 0 mm 2 mps 766 mmHg 49%
02:00 +13°C° 0 mm 2 mps 766 mmHg 50%
03:00 +12°C° 0 mm 2 mps 767 mmHg 51%
04:00 +12°C° 0 mm 2 mps 767 mmHg 53%
05:00 +12°C° 0 mm 2 mps 766 mmHg 55%
06:00 +10°C° 0 mm 2 mps 766 mmHg 57%
07:00 +13°C° 0 mm 2 mps 767 mmHg 52%
08:00 +14°C° 0 mm 3 mps 767 mmHg 47%
09:00 +17°C° 0 mm 3 mps 767 mmHg 42%
10:00 +18°C° 0 mm 3 mps 767 mmHg 39%
11:00 +20°C° 0 mm 3 mps 767 mmHg 36%
12:00 +21°C° 0 mm 3 mps 767 mmHg 34%
13:00 +21°C° 0 mm 3 mps 767 mmHg 33%
14:00 +21°C° 0 mm 3 mps 766 mmHg 32%
15:00 +23°C° 0 mm 2 mps 766 mmHg 32%
16:00 +20°C° 0 mm 2 mps 766 mmHg 36%
17:00 +18°C° 0 mm 2 mps 766 mmHg 40%
18:00 +17°C° 0 mm 2 mps 766 mmHg 43%
19:00 +16°C° 0 mm 2 mps 766 mmHg 48%
20:00 +16°C° 0 mm 2 mps 766 mmHg 52%
21:00 +14°C° 0 mm 3 mps 766 mmHg 57%
22:00 +15°C° 0 mm 2 mps 766 mmHg 60%
23:00 +14°C° 0 mm 2 mps 767 mmHg 64%

Day after tomorrow, 4 October, Sunday

Time Temperature Precipitation Wind Pressure Humidity
00:00 +14°C° 0 mm 2 mps 767 mmHg 68%
01:00 +13°C° 0 mm 2 mps 767 mmHg 69%
02:00 +13°C° 0 mm 2 mps 767 mmHg 70%
03:00 +13°C° 0 mm 2 mps 767 mmHg 71%
04:00 +13°C° 0 mm 2 mps 767 mmHg 73%
05:00 +12°C° 0 mm 2 mps 767 mmHg 74%
06:00 +12°C° 0 mm 2 mps 767 mmHg 76%
07:00 +12°C° 0 mm 3 mps 767 mmHg 71%
08:00 +14°C° 0 mm 3 mps 767 mmHg 65%
09:00 +16°C° 0 mm 3 mps 768 mmHg 60%
10:00 +17°C° 0 mm 4 mps 767 mmHg 55%
11:00 +18°C° 0 mm 4 mps 767 mmHg 49%
12:00 +20°C° 0 mm 4 mps 767 mmHg 44%
13:00 +20°C° 0 mm 4 mps 767 mmHg 42%
14:00 +20°C° 0 mm 4 mps 767 mmHg 41%
15:00 +20°C° 0 mm 4 mps 767 mmHg 39%
16:00 +18°C° 0 mm 4 mps 767 mmHg 43%
17:00 +17°C° 0 mm 3 mps 767 mmHg 46%
18:00 +14°C° 0 mm 3 mps 767 mmHg 50%
19:00 +14°C° 0 mm 3 mps 767 mmHg 55%
20:00 +13°C° 0 mm 4 mps 768 mmHg 59%
21:00 +12°C° 0 mm 4 mps 768 mmHg 64%
22:00 +12°C° 0 mm 4 mps 768 mmHg 68%
23:00 +11°C° 0 mm 4 mps 768 mmHg 72%

5 October, Monday

Time Temperature Precipitation Wind Pressure Humidity
00:00 +10°C° 0 mm 3 mps 768 mmHg 76%
01:00 +10°C° 0 mm 3 mps 769 mmHg 77%
02:00 +9°C° 0 mm 3 mps 769 mmHg 78%
03:00 +9°C° 0 mm 3 mps 769 mmHg 79%
04:00 +8°C° 0 mm 3 mps 769 mmHg 77%
05:00 +8°C° 0 mm 3 mps 769 mmHg 74%
06:00 +7°C° 0 mm 3 mps 770 mmHg 72%
07:00 +8°C° 0 mm 3 mps 770 mmHg 64%
08:00 +10°C° 0 mm 4 mps 770 mmHg 56%
09:00 +11°C° 0 mm 4 mps 770 mmHg 48%
10:00 +12°C° 0 mm 4 mps 770 mmHg 43%
11:00 +13°C° 0 mm 4 mps 770 mmHg 38%
12:00 +14°C° 0 mm 4 mps 770 mmHg 34%
13:00 +15°C° 0 mm 4 mps 770 mmHg 32%
14:00 +15°C° 0 mm 4 mps 769 mmHg 30%
15:00 +17°C° 0 mm 3 mps 769 mmHg 28%
16:00 +14°C° 0 mm 3 mps 769 mmHg 31%
17:00 +12°C° 0 mm 3 mps 769 mmHg 34%
18:00 +12°C° 0 mm 2 mps 769 mmHg 37%
19:00 +10°C° 0 mm 2 mps 769 mmHg 40%
20:00 +9°C° 0 mm 2 mps 769 mmHg 43%
21:00 +9°C° 0 mm 2 mps 769 mmHg 46%
22:00 +8°C° 0 mm 2 mps 769 mmHg 50%
23:00 +8°C° 0 mm 2 mps 769 mmHg 54%

6 October, Tuesday

Time Temperature Precipitation Wind Pressure Humidity
00:00 +8°C° 0 mm 2 mps 769 mmHg 58%
01:00 +7°C° 0 mm 2 mps 769 mmHg 62%
02:00 +7°C° 0 mm 2 mps 769 mmHg 65%
03:00 +7°C° 0 mm 2 mps 769 mmHg 69%
04:00 +7°C° 0 mm 2 mps 769 mmHg 69%
05:00 +7°C° 0 mm 1 mps 769 mmHg 69%
06:00 +7°C° 0 mm 1 mps 769 mmHg 68%
07:00 +9°C° 0 mm 1 mps 769 mmHg 61%
08:00 +10°C° 0 mm 1 mps 769 mmHg 54%
09:00 +12°C° 0 mm 1 mps 769 mmHg 47%
10:00 +13°C° 0 mm 1 mps 769 mmHg 45%
11:00 +15°C° 0 mm 1 mps 769 mmHg 42%
12:00 +16°C° 0 mm 1 mps 769 mmHg 40%
13:00 +16°C° 0 mm 1 mps 768 mmHg 38%
14:00 +18°C° 0 mm 1 mps 768 mmHg 37%
15:00 +18°C° 0 mm 1 mps 768 mmHg 36%
16:00 +16°C° 0 mm 1 mps 767 mmHg 39%
17:00 +14°C° 0 mm 1 mps 767 mmHg 43%
18:00 +13°C° 0 mm 1 mps 767 mmHg 47%
19:00 +11°C° 0 mm 0 mps 767 mmHg 48%
20:00 +11°C° 0 mm 0 mps 767 mmHg 50%
21:00 +10°C° 0 mm 0 mps 767 mmHg 52%
22:00 +10°C° 0 mm 0 mps 767 mmHg 53%
23:00 +9°C° 0 mm 0 mps 766 mmHg 54%

7 October, Wednesday

Time Temperature Precipitation Wind Pressure Humidity
00:00 +9°C° 0 mm 0 mps 766 mmHg 55%
01:00 +9°C° 0 mm 0 mps 766 mmHg 55%
02:00 +9°C° 0 mm 0 mps 766 mmHg 56%
03:00 +10°C° 0 mm 1 mps 766 mmHg 57%
04:00 +9°C° 0 mm 1 mps 766 mmHg 56%
05:00 +9°C° 0 mm 1 mps 766 mmHg 56%
06:00 +9°C° 0 mm 1 mps 766 mmHg 56%
07:00 +10°C° 0 mm 1 mps 766 mmHg 50%
08:00 +12°C° 0 mm 2 mps 766 mmHg 43%
09:00 +14°C° 0 mm 2 mps 766 mmHg 36%
10:00 +15°C° 0 mm 2 mps 766 mmHg 34%
11:00 +16°C° 0 mm 2 mps 766 mmHg 33%
12:00 +18°C° 0 mm 2 mps 766 mmHg 31%
13:00 +18°C° 0 mm 2 mps 766 mmHg 30%
14:00 +19°C° 0 mm 2 mps 765 mmHg 30%
15:00 +19°C° 0 mm 2 mps 765 mmHg 29%
16:00 +18°C° 0 mm 2 mps 765 mmHg 34%
17:00 +16°C° 0 mm 2 mps 765 mmHg 38%
18:00 +15°C° 0 mm 2 mps 765 mmHg 42%
19:00 +14°C° 0 mm 2 mps 765 mmHg 45%
20:00 +14°C° 0 mm 2 mps 765 mmHg 48%
21:00 +13°C° 0 mm 2 mps 766 mmHg 51%
22:00 +13°C° 0 mm 2 mps 766 mmHg 54%
23:00 +13°C° 0 mm 1 mps 766 mmHg 57%
Show more

We Need Your Consent

Meteoprog and our Service Providers may store and access personal data such as cookies, device identifiers or other similar technologies on your device and process such data to personalise content and ads, as well as provide social media features and to analyse the traffic.

  • Store and/or access information on your device

    Cookies, device identifiers or other information can be stored or accessed on your device for the purposes indicated above.

  • Personalised ads and content, ad and content measurement, audience insights, and products development

    Ads and content can be personalised based on a profile. More data can be added to better personalise ads and content. Ad and content performance can be measured. Insights about the audience who saw the ads and content can be derived. Such data can be used to develop or improve user’s experience, systems and software.

By clicking ‘I Agree’ you will allow the use of indicated cookies, device identifiers, web beacons or other similar technologies. Your settings can be changed in the browser on your device.

For certain purposes, legitimate interests may be relied on, rather than consent. You can read more about this in our Privacy and Cookie Policy.